Location: Calberlah
(52.4230°N, 10.6240°E)
Time: 23:51:00
(UTC+00:00)

Cosmos 1766 Rocket - Pass Details

Date: 19 May 2025
Orbit: 598 x 627 km, 82.5° (Epoch: 22 June)

Event Time Altitude Azimuth Distance (km) Brightness Sun altitude
Rises 21:53:16 0° 346° (NNW) 2,911 8.9 -15.5°
Reaches altitude 10° 21:55:32 10° 342° (NNW) 1,996 7.6 -15.6°
Maximum altitude 21:59:52 57° 265° (W) 732 3.9 -15.8°
Enters shadow 22:02:18 24° 195° (SSW) 1,272 4.7 -15.9°
